Location: Tauranga
(37.6860°S, 176.1670°E)
Time: 06:32:54
(UTC+13:00)

ISS - Visible Passes

Search period start: 21 October 2019 00:00
Search period end: 31 October 2019 00:00
Orbit: 411 x 421 km, 51.6° (Epoch: 20 October)

Date Brightness Start Highest point End Pass type
(mag) Time Alt. Az. Time Alt. Az. Time Alt. Az.
21 Oct -1.8 20:58:34 10° W 21:01:37 30° SSW 21:04:40 10° SSE visible
22 Oct -2.7 20:09:39 10° WNW 20:12:56 49° SW 20:16:16 10° SE visible
22 Oct -0.6 21:48:54 10° SW 21:50:20 12° SSW 21:51:46 10° S visible
23 Oct -0.8 20:59:19 10° WSW 21:01:28 16° SSW 21:03:39 10° SSE visible
24 Oct -1.2 20:09:57 10° W 20:12:39 22° SSW 20:15:24 10° SSE visible
25 Oct -0.4 21:01:14 10° SSW 21:01:29 10° SSW 21:01:44 10° S visible
26 Oct -0.7 20:10:59 10° SW 20:12:33 13° SSW 20:14:07 10° S visible
27 Oct -0.4 22:38:16 10° S 22:38:39 11° S 22:38:39 11° S visible
29 Oct -0.7 22:36:52 10° SSW 22:37:51 15° S 22:37:51 15° S visible
30 Oct -1.2 21:48:34 10° SSW 21:50:35 15° SSE 21:51:00 14° SSE visible
